Preview of NWS' New Version of Forecast
This preview is not operational and should not be used for support decisions.

Regional Weather Roundup (RWR)

Issued by National Weather Service (NWS)

                            
000
ASUS43 KBIS 251410
RWRND 

NORTH DAKOTA REGIONAL WEATHER ROUNDUP
NATIONAL WEATHER SERVICE BISMARCK ND
900 AM CDT THU APR 25 2019

NOTE: "FAIR" INDICATES FEW OR NO CLOUDS BELOW 12,000 FEET WITH NO
SIGNIFICANT WEATHER AND/OR OBSTRUCTIONS TO VISIBILITY.


NDZ001>003-009>011-017-251500-
NORTHWEST NORTH DAKOTA
  
CITY           SKY/WX    TMP DP  RH WIND       PRES   REMARKS
WILLISTON      PTSUNNY   44  20  38 NW17      30.15R                  
MINOT          PTSUNNY   50  28  42 W24G31    30.03R                  
MINOT AFB      CLOUDY    46  25  42 NW22G31   30.02R                  
$$
 
NDZ018>021-031>035-040>046-251500-
SOUTHWEST NORTH DAKOTA
  
CITY           SKY/WX    TMP DP  RH WIND       PRES   REMARKS
BISMARCK       CLOUDY    50  28  42 N14G30    30.05R                  
DICKINSON      PTSUNNY   46  31  55 NW17      30.10R                  
GARRISON         N/A     47  33  58 NW24G31   30.05R                  
HETTINGER ARPT SUNNY     46  37  71 NW21G29   30.10R                  
$$
 
NDZ004>008-012>016-024-026-027-054-251500-
NORTHEAST NORTH DAKOTA
  
CITY           SKY/WX    TMP DP  RH WIND       PRES   REMARKS
GRAND FORKS    SUNNY     52  33  48 W14       29.88R                  
GRND FRKS AFB  SUNNY     50  28  43 NW15      29.92R                  
DEVILS LAKE    MOSUNNY   46  31  55 W14       29.96R                  
$$
 
NDZ022-023-025-028>030-036>039-047>053-251500-
SOUTHEAST NORTH DAKOTA
  
CITY           SKY/WX    TMP DP  RH WIND       PRES   REMARKS
FARGO          SUNNY     53  33  46 NW7       29.89R                  
JAMESTOWN      SUNNY     50  30  46 NW15G28   29.96R                  
$$